Location: Brighton Point
(40.6144°N, 111.7933°W)
Time: 16:49:37
(UTC+00:00)

X-37B - Visible Passes

Search period start: 25 February 2021 00:00
Search period end: 07 March 2021 00:00
Orbit: 383 x 391 km, 45.0° (Epoch: 10 February)

Date Brightness Start Highest point End Pass type
(mag) Time Alt. Az. Time Alt. Az. Time Alt. Az.
25 Feb 1.6 12:45:01 28° NW 12:46:03 38° N 12:49:02 10° ENE visible
26 Feb 3.3 11:49:14 20° NE 11:49:14 20° NE 11:50:30 10° ENE visible
26 Feb 0.7 13:21:31 11° WNW 13:24:29 69° NNE 13:27:37 10° ESE visible
27 Feb 1.2 12:25:47 46° N 12:26:03 48° NNE 12:29:07 10° E visible
28 Feb 4.0 11:30:05 13° ENE 11:30:05 13° ENE 11:30:34 10° ENE visible
28 Feb 0.5 13:02:23 21° WNW 13:04:22 72° SSW 13:07:31 10° ESE visible
01 Mar 1.6 12:06:46 46° E 12:06:46 46° E 12:09:09 10° ESE visible
02 Mar 1.2 12:43:33 34° WSW 12:44:11 39° SSW 12:47:10 10° SE visible
03 Mar 3.2 11:48:09 17° ESE 11:48:09 17° ESE 11:49:02 10° ESE visible
03 Mar 2.9 13:20:52 10° WSW 13:22:05 12° SW 13:23:17 10° SSW visible
04 Mar 2.7 12:25:11 17° S 12:25:11 17° S 12:26:25 10° SSE visible
